Change the Weather History Date:

Sunday, August 10, 2014

  Actual Average (KHCD) Record (KHCD)
Temperature  
Mean Temperature 74 °F -  
Max Temperature 82 °F 82 °F 93 °F (1976)
Min Temperature 68 °F 57 °F 45 °F (1967)
Cooling Degree Days 10    
Growing Degree Days 24 (Base 50)    
Moisture  
Dew Point 64 °F    
Average Humidity 74    
Maximum Humidity 87    
Minimum Humidity 52    
Precipitation  
Precipitation 0.25 in - - ()
Sea Level Pressure  
Sea Level Pressure 30.02 in    
Wind  
Wind Speed 5 mph (SSE)    
Max Wind Speed 14 mph    
Max Gust Speed 16 mph    
Visibility 10 miles    
Events Rain , Thunderstorm    
Averages and records for this station are not official NWS values.
T = Trace of Precipitation, MM = Missing Value Source: NWS Daily Summary

Daily Weather History Graph

Daily Weather History Graph

Search for Another Location

Airport or City:

Trip Planner

Search our weather history database for the weather conditions in past years. The results will help you decide how hot, cold, wet, or windy it might be!

Date:

Astronomy

Aug. 10, 2014 Rise Set
Actual Time 6:12 AM CDT 8:29 PM CDT
Civil Twilight 5:40 AM CDT 9:02 PM CDT
Nautical Twilight 5:00 AM CDT 9:42 PM CDT
Astronomical Twilight 4:15 AM CDT 10:26 PM CDT
Moon 8:13 PM CDT (8/10) 6:08 AM CDT (8/10)
Length of Visible Light 15h 21m
Length of Day
14h 17m
Full, 100% of the Moon is Illuminated
Aug 10
Full
Aug 10
Full
Aug 17
Last Quarter
Aug 25
New
Sep 2
First Quarter

Hourly Weather History & Observations

Time (CDT) Temp. Heat Index Dew Point Humidity Pressure Visibility Wind Dir Wind Speed Gust Speed Precip Events Conditions
12:14 AM 69.8 °F - 61.3 °F 74% 30.04 in 10.0 mi ESE 6.9 mph - N/A   Scattered Clouds
12:33 AM 69.8 °F - 60.8 °F 73% 30.04 in 10.0 mi ESE 4.6 mph - N/A   Clear
12:54 AM 69.3 °F - 61.2 °F 75% 30.03 in 10.0 mi ESE 4.6 mph - N/A   Clear
1:13 AM 69.4 °F - 61.0 °F 74% 30.04 in 10.0 mi ESE 6.9 mph - N/A   Clear
1:34 AM 69.3 °F - 61.0 °F 75% 30.03 in 10.0 mi ESE 6.9 mph - N/A   Clear
1:53 AM 69.8 °F - 60.8 °F 73% 30.05 in 10.0 mi ESE 5.8 mph - N/A   Clear
2:14 AM 69.8 °F - 60.8 °F 73% 30.06 in 10.0 mi SE 3.5 mph - N/A   Clear
2:33 AM 69.3 °F - 60.8 °F 74% 30.06 in 10.0 mi ESE 4.6 mph - N/A   Clear
2:54 AM 69.3 °F - 60.8 °F 74% 30.05 in 10.0 mi ESE 5.8 mph - N/A   Clear
3:13 AM 69.3 °F - 60.8 °F 74% 30.05 in 10.0 mi ESE 4.6 mph - N/A   Clear
3:34 AM 68.9 °F - 60.8 °F 75% 30.06 in 10.0 mi ESE 4.6 mph - N/A   Scattered Clouds
4:14 AM 68.7 °F - 60.8 °F 76% 30.06 in 10.0 mi SE 3.5 mph - N/A   Scattered Clouds
4:33 AM 68.4 °F - 61.0 °F 77% 30.06 in 10.0 mi SE 4.6 mph - N/A   Mostly Cloudy
4:54 AM 68.4 °F - 61.0 °F 77% 30.05 in 10.0 mi SSE 3.5 mph - N/A   Scattered Clouds
5:13 AM 68.2 °F - 61.0 °F 78% 30.04 in 10.0 mi SE 4.6 mph - N/A   Mostly Cloudy
5:33 AM 68.0 °F - 61.0 °F 78% 30.05 in 10.0 mi Calm Calm - N/A   Overcast
5:54 AM 68.4 °F - 61.0 °F 77% 30.05 in 10.0 mi SSE 3.5 mph - N/A   Mostly Cloudy
6:14 AM 68.0 °F - 60.8 °F 78% 30.05 in 10.0 mi Calm Calm - N/A   Scattered Clouds
6:33 AM 68.0 °F - 61.0 °F 78% 30.06 in 10.0 mi Calm Calm - N/A   Scattered Clouds
7:13 AM 68.4 °F - 61.0 °F 77% 30.06 in 10.0 mi SSE 3.5 mph - N/A   Mostly Cloudy
7:34 AM 68.4 °F - 61.3 °F 78% 30.06 in 10.0 mi SE 4.6 mph - N/A   Scattered Clouds
7:54 AM 68.7 °F - 61.3 °F 77% 30.07 in 10.0 mi SE 5.8 mph - N/A   Clear
8:13 AM 69.1 °F - 61.5 °F 77% 30.07 in 10.0 mi SSE 3.5 mph - N/A   Clear
8:34 AM 69.8 °F - 61.7 °F 75% 30.06 in 10.0 mi SSE 3.5 mph - N/A   Clear
8:53 AM 70.3 °F - 62.1 °F 75% 30.06 in 10.0 mi SSE 3.5 mph - N/A   Clear
9:14 AM 72.0 °F - 61.9 °F 70% 30.06 in 10.0 mi SSE 5.8 mph - N/A   Clear
9:33 AM 72.7 °F - 62.1 °F 69% 30.05 in 10.0 mi SE 5.8 mph - N/A   Clear
9:54 AM 74.5 °F - 62.6 °F 66% 30.04 in 10.0 mi SSE 4.6 mph - N/A   Clear
10:14 AM 76.1 °F - 63.0 °F 64% 30.05 in 10.0 mi SSE 5.8 mph - N/A   Clear
10:33 AM 77.9 °F - 63.1 °F 60% 30.05 in 10.0 mi SE 5.8 mph - N/A   Clear
10:54 AM 77.5 °F - 63.3 °F 61% 30.05 in 10.0 mi SSE 5.8 mph - N/A   Clear
11:14 AM 78.4 °F - 63.5 °F 60% 30.04 in 10.0 mi SE 6.9 mph - N/A   Clear
11:33 AM 78.8 °F - 62.2 °F 57% 30.04 in 10.0 mi SSE 5.8 mph - N/A   Clear
11:54 AM 79.0 °F - 61.9 °F 56% 30.04 in 10.0 mi SSE 6.9 mph - N/A   Clear
12:14 PM 79.7 °F - 61.7 °F 54% 30.04 in 10.0 mi South 5.8 mph - N/A   Clear
12:33 PM 79.2 °F - 62.2 °F 56% 30.04 in 10.0 mi South 8.1 mph - N/A   Scattered Clouds
12:54 PM 79.9 °F - 61.9 °F 54% 30.03 in 10.0 mi South 6.9 mph - N/A   Clear
1:14 PM 80.6 °F 81.7 °F 61.9 °F 53% 30.03 in 10.0 mi SSE 6.9 mph - N/A   Scattered Clouds
1:34 PM 81.5 °F 82.5 °F 62.1 °F 52% 30.02 in 10.0 mi SSE 5.8 mph - N/A   Clear
1:54 PM 80.8 °F 81.8 °F 61.9 °F 52% 30.01 in 10.0 mi SSE 8.1 mph 16.1 mph N/A   Scattered Clouds
2:14 PM 79.9 °F - 61.9 °F 54% 30.00 in 10.0 mi SSE 5.8 mph - N/A   Scattered Clouds
2:34 PM 78.8 °F - 62.4 °F 57% 30.00 in 10.0 mi SSE 4.6 mph - N/A   Scattered Clouds
2:54 PM 77.0 °F - 64.4 °F 65% 30.00 in 10.0 mi WSW 8.1 mph - N/A Rain , Thunderstorm Rain
3:14 PM 71.4 °F - 66.6 °F 85% 30.01 in 2.5 mi SW 13.8 mph - 0.11 in Rain , Thunderstorm Heavy Thunderstorms and Rain
3:34 PM 72.1 °F - 68.0 °F 87% 30.00 in 5.0 mi South 4.6 mph - 0.21 in Rain Light Rain
3:54 PM 75.2 °F - 68.0 °F 78% 30.00 in 10.0 mi South 5.8 mph - 0.21 in   Scattered Clouds
4:14 PM 74.7 °F - 67.8 °F 79% 30.00 in 10.0 mi South 6.9 mph - N/A   Scattered Clouds
4:33 PM 73.9 °F - 67.1 °F 79% 30.00 in 10.0 mi South 6.9 mph - N/A   Scattered Clouds
4:54 PM 73.8 °F - 66.9 °F 79% 29.99 in 10.0 mi South 8.1 mph - N/A   Scattered Clouds
5:34 PM 72.9 °F - 67.3 °F 83% 29.99 in 10.0 mi SSW 6.9 mph - N/A Rain Rain
5:54 PM 75.4 °F - 68.7 °F 80% 29.98 in 10.0 mi South 5.8 mph - N/A   Mostly Cloudy
6:14 PM 75.4 °F - 68.2 °F 78% 29.98 in 10.0 mi South 3.5 mph - N/A   Mostly Cloudy
6:34 PM 73.0 °F - 66.4 °F 80% 29.98 in 4.0 mi West 5.8 mph - 0.04 in Rain Light Rain
6:54 PM 73.0 °F - 66.6 °F 80% 29.98 in 10.0 mi West 4.6 mph - 0.04 in   Scattered Clouds
7:14 PM 73.4 °F - 66.4 °F 79% 29.98 in 10.0 mi Calm Calm - N/A Thunderstorm Scattered Clouds
7:34 PM 73.0 °F - 66.6 °F 80% 29.97 in 10.0 mi Calm Calm - N/A   Scattered Clouds
7:54 PM 72.5 °F - 66.2 °F 81% 29.97 in 10.0 mi WSW 3.5 mph - N/A   Scattered Clouds
8:14 PM 72.0 °F - 66.6 °F 83% 29.97 in 10.0 mi Calm Calm - N/A   Scattered Clouds
8:34 PM 72.0 °F - 66.7 °F 84% 29.98 in 10.0 mi Calm Calm - N/A   Scattered Clouds
8:54 PM 71.8 °F - 66.6 °F 84% 29.98 in 10.0 mi Calm Calm - N/A   Scattered Clouds
9:14 PM 71.2 °F - 66.6 °F 85% 29.97 in 10.0 mi Calm Calm - N/A   Clear
9:34 PM 71.1 °F - 66.4 °F 85% 29.97 in 10.0 mi Calm Calm - N/A   Scattered Clouds
9:54 PM 70.9 °F - 66.4 °F 86% 29.98 in 10.0 mi WSW 3.5 mph - N/A   Scattered Clouds
10:14 PM 70.9 °F - 66.2 °F 85% 29.97 in 10.0 mi West 3.5 mph - N/A   Mostly Cloudy
10:34 PM 70.3 °F - 66.2 °F 87% 29.98 in 10.0 mi West 4.6 mph - N/A   Scattered Clouds
10:54 PM 70.2 °F - 65.8 °F 86% 29.97 in 10.0 mi West 4.6 mph - N/A   Clear
11:14 PM 70.0 °F - 65.7 °F 86% 29.97 in 10.0 mi WNW 8.1 mph - N/A   Clear
11:33 PM 70.2 °F - 65.3 °F 85% 29.98 in 10.0 mi WNW 5.8 mph - N/A   Scattered Clouds
11:54 PM 70.2 °F - 65.5 °F 85% 29.98 in 10.0 mi West 5.8 mph - N/A   Overcast